{"data":{"norad_id":59281,"epoch":"2026-05-25T04:40:40.037376Z","epoch_age_seconds":55219,"freshness":"FRESH","line1":"1 59281U 24052B   26145.19490784  .00000032  00000+0  77515-4 0  9991","line2":"2 59281  50.0087 119.9205 0004483 108.0302 252.1101 14.27964426113324","mean_motion":14.27964426,"eccentricity":0.0004483,"inclination_deg":50.0087,"raan_deg":119.9205,"arg_perigee_deg":108.0302,"mean_anomaly_deg":252.1101,"bstar":7.7515e-5,"rev_number":11332,"period_min":100.84284830776,"perigee_km":795.32570284068,"apogee_km":801.76031413629,"semimajor_km":7176.6800084885,"source":"CELESTRAK","updated_at":"2026-05-25T13:38:01.312626Z"}}